Retour au catalogue

STARLINK-3150

ActifCommunicationsVLEO
NORAD 49452·PAYLOAD·🇺🇸 United States

Lancé Nov 13, 2021 depuis Cape Canaveral Space Force Station

Loading…

Prochains Passages (prochaines 24 heures)

TLE

FraisSource: CelesTrak SupGP

Époque: Sep 14, 2026, 14:01 UTC

1 49452C 21104AW  26257.58451389 -.00030100  00000+0 -96797-3 0  2570
2 49452  53.1579  79.3480 0001131  93.8326 251.6341 15.31715628    16

Suivez STARLINK-3150 en temps réel avec AllMySat

Download on the App Store